• în Republica Moldova
  • Lista ţărilor
  • Pe 7 zile
  • Temperatura apei
  • Hartă satelitară
  • Meteo pe hartă
  • Widget-uri
  • user-avatar
    Intrare

    Meteo pe oră la Ghanzi

    Astăzi, 23 Martie, Sâmbătă

    Timp Temperatura Precipitaţii Vânt Presiune Umiditate
    00:00 +28°C° 0 mm 4 m/s 711 mmHg 11%
    01:00 +28°C° 0 mm 7 m/s 711 mmHg 11%
    02:00 +27°C° 0 mm 6 m/s 711 mmHg 12%
    03:00 +26°C° 0 mm 6 m/s 711 mmHg 13%
    04:00 +25°C° 0 mm 5 m/s 711 mmHg 13%
    05:00 +26°C° 0 mm 5 m/s 711 mmHg 13%
    06:00 +26°C° 0 mm 6 m/s 712 mmHg 13%
    07:00 +26°C° 0 mm 6 m/s 712 mmHg 13%
    08:00 +28°C° 0 mm 7 m/s 713 mmHg 12%
    09:00 +30°C° 0 mm 7 m/s 714 mmHg 11%
    10:00 +33°C° 0 mm 8 m/s 714 mmHg 10%
    11:00 +34°C° 0 mm 8 m/s 714 mmHg 10%
    12:00 +35°C° 0 mm 8 m/s 714 mmHg 9%
    13:00 +37°C° 0 mm 8 m/s 713 mmHg 9%
    14:00 +37°C° 0 mm 8 m/s 713 mmHg 10%
    15:00 +35°C° 0 mm 7 m/s 713 mmHg 10%
    16:00 +35°C° 0 mm 7 m/s 712 mmHg 10%
    17:00 +34°C° 0 mm 6 m/s 712 mmHg 11%
    18:00 +32°C° 0 mm 5 m/s 713 mmHg 12%
    19:00 +29°C° 0 mm 5 m/s 713 mmHg 13%
    20:00 +28°C° 0 mm 5 m/s 713 mmHg 13%
    21:00 +27°C° 0 mm 5 m/s 714 mmHg 14%
    22:00 +26°C° 0 mm 6 m/s 715 mmHg 14%
    23:00 +25°C° 0 mm 5 m/s 714 mmHg 16%

    Mâine, 24 Martie, Duminică

    Timp Temperatura Precipitaţii Vânt Presiune Umiditate
    00:00 +23°C° 0 mm 5 m/s 714 mmHg 19%
    01:00 +22°C° 0 mm 5 m/s 714 mmHg 21%
    02:00 +21°C° 0 mm 5 m/s 714 mmHg 23%
    03:00 +21°C° 0 mm 5 m/s 714 mmHg 26%
    04:00 +20°C° 0 mm 5 m/s 713 mmHg 28%
    05:00 +20°C° 0 mm 5 m/s 714 mmHg 29%
    06:00 +20°C° 0 mm 6 m/s 714 mmHg 31%
    07:00 +21°C° 0 mm 7 m/s 715 mmHg 32%
    08:00 +22°C° 0 mm 7 m/s 715 mmHg 30%
    09:00 +24°C° 0 mm 7 m/s 715 mmHg 27%
    10:00 +27°C° 0 mm 7 m/s 716 mmHg 25%
    11:00 +28°C° 0 mm 7 m/s 715 mmHg 23%
    12:00 +29°C° 0 mm 7 m/s 715 mmHg 21%
    13:00 +31°C° 0 mm 8 m/s 714 mmHg 19%
    14:00 +31°C° 0 mm 8 m/s 714 mmHg 19%
    15:00 +31°C° 0 mm 8 m/s 713 mmHg 18%
    16:00 +31°C° 0 mm 8 m/s 713 mmHg 18%
    17:00 +29°C° 0 mm 7 m/s 713 mmHg 18%
    18:00 +27°C° 0 mm 6 m/s 714 mmHg 19%
    19:00 +26°C° 0 mm 6 m/s 714 mmHg 19%
    20:00 +24°C° 0 mm 6 m/s 715 mmHg 20%
    21:00 +23°C° 0 mm 6 m/s 715 mmHg 20%
    22:00 +22°C° 0 mm 6 m/s 716 mmHg 21%
    23:00 +21°C° 0 mm 6 m/s 716 mmHg 23%

    Poimâine, 25 Martie, Luni

    Timp Temperatura Precipitaţii Vânt Presiune Umiditate
    00:00 +20°C° 0 mm 5 m/s 715 mmHg 26%
    01:00 +19°C° 0 mm 5 m/s 715 mmHg 28%
    02:00 +17°C° 0 mm 5 m/s 715 mmHg 30%
    03:00 +17°C° 0 mm 5 m/s 714 mmHg 32%
    04:00 +16°C° 0 mm 5 m/s 714 mmHg 33%
    05:00 +16°C° 0 mm 6 m/s 715 mmHg 36%
    06:00 +16°C° 0 mm 7 m/s 716 mmHg 38%
    07:00 +16°C° 0 mm 8 m/s 716 mmHg 40%
    08:00 +18°C° 0 mm 8 m/s 717 mmHg 36%
    09:00 +21°C° 0 mm 8 m/s 717 mmHg 32%
    10:00 +22°C° 0 mm 8 m/s 718 mmHg 28%
    11:00 +23°C° 0 mm 8 m/s 717 mmHg 25%
    12:00 +26°C° 0 mm 8 m/s 717 mmHg 21%
    13:00 +27°C° 0 mm 7 m/s 716 mmHg 18%
    14:00 +27°C° 0 mm 7 m/s 716 mmHg 17%
    15:00 +27°C° 0 mm 7 m/s 715 mmHg 15%
    16:00 +27°C° 0 mm 7 m/s 715 mmHg 14%
    17:00 +24°C° 0 mm 7 m/s 715 mmHg 16%
    18:00 +23°C° 0 mm 6 m/s 716 mmHg 18%
    19:00 +21°C° 0 mm 5 m/s 716 mmHg 20%
    20:00 +20°C° 0 mm 5 m/s 716 mmHg 21%
    21:00 +19°C° 0 mm 5 m/s 717 mmHg 22%
    22:00 +17°C° 0 mm 6 m/s 717 mmHg 24%
    23:00 +17°C° 0 mm 6 m/s 717 mmHg 23%

    26 Martie, Marţi

    Timp Temperatura Precipitaţii Vânt Presiune Umiditate
    00:00 +16°C° 0 mm 6 m/s 717 mmHg 22%
    01:00 +15°C° 0 mm 6 m/s 716 mmHg 21%
    02:00 +14°C° 0 mm 5 m/s 716 mmHg 24%
    03:00 +13°C° 0 mm 5 m/s 716 mmHg 26%
    04:00 +13°C° 0 mm 5 m/s 716 mmHg 28%
    05:00 +13°C° 0 mm 5 m/s 717 mmHg 29%
    06:00 +14°C° 0 mm 5 m/s 717 mmHg 31%
    07:00 +14°C° 0 mm 6 m/s 718 mmHg 32%
    08:00 +16°C° 0 mm 5 m/s 719 mmHg 28%
    09:00 +19°C° 0 mm 5 m/s 719 mmHg 25%
    10:00 +21°C° 0 mm 5 m/s 720 mmHg 22%
    11:00 +23°C° 0 mm 5 m/s 719 mmHg 19%
    12:00 +25°C° 0 mm 5 m/s 719 mmHg 17%
    13:00 +26°C° 0 mm 4 m/s 718 mmHg 14%
    14:00 +27°C° 0 mm 5 m/s 718 mmHg 14%
    15:00 +27°C° 0 mm 5 m/s 717 mmHg 13%
    16:00 +27°C° 0 mm 5 m/s 717 mmHg 13%
    17:00 +25°C° 0 mm 4 m/s 717 mmHg 14%
    18:00 +23°C° 0 mm 4 m/s 717 mmHg 16%
    19:00 +21°C° 0 mm 4 m/s 718 mmHg 18%
    20:00 +21°C° 0 mm 4 m/s 718 mmHg 19%
    21:00 +20°C° 0 mm 3 m/s 719 mmHg 20%
    22:00 +19°C° 0 mm 3 m/s 719 mmHg 21%
    23:00 +19°C° 0 mm 3 m/s 719 mmHg 22%

    27 Martie, Miercuri

    Timp Temperatura Precipitaţii Vânt Presiune Umiditate
    00:00 +18°C° 0 mm 3 m/s 718 mmHg 23%
    01:00 +17°C° 0 mm 3 m/s 718 mmHg 24%
    02:00 +17°C° 0 mm 4 m/s 718 mmHg 25%
    03:00 +15°C° 0 mm 4 m/s 718 mmHg 26%
    04:00 +15°C° 0 mm 4 m/s 718 mmHg 27%
    05:00 +15°C° 0 mm 4 m/s 719 mmHg 26%
    06:00 +17°C° 0 mm 4 m/s 719 mmHg 25%
    07:00 +17°C° 0 mm 4 m/s 720 mmHg 25%
    08:00 +20°C° 0 mm 4 m/s 720 mmHg 21%
    09:00 +22°C° 0 mm 4 m/s 720 mmHg 18%
    10:00 +25°C° 0 mm 4 m/s 721 mmHg 14%
    11:00 +27°C° 0 mm 4 m/s 720 mmHg 12%
    12:00 +28°C° 0 mm 4 m/s 719 mmHg 11%
    13:00 +29°C° 0 mm 5 m/s 719 mmHg 9%
    14:00 +30°C° 0 mm 4 m/s 718 mmHg 9%
    15:00 +30°C° 0 mm 4 m/s 718 mmHg 8%
    16:00 +30°C° 0 mm 4 m/s 718 mmHg 8%
    17:00 +28°C° 0 mm 4 m/s 718 mmHg 9%
    18:00 +26°C° 0 mm 4 m/s 718 mmHg 11%
    19:00 +24°C° 0 mm 3 m/s 718 mmHg 12%
    20:00 +24°C° 0 mm 3 m/s 718 mmHg 13%
    21:00 +22°C° 0 mm 3 m/s 719 mmHg 14%
    22:00 +21°C° 0 mm 3 m/s 719 mmHg 15%
    23:00 +20°C° 0 mm 3 m/s 718 mmHg 16%

    28 Martie, Joi

    Timp Temperatura Precipitaţii Vânt Presiune Umiditate
    00:00 +20°C° 0 mm 3 m/s 718 mmHg 17%
    01:00 +19°C° 0 mm 3 m/s 718 mmHg 17%
    02:00 +19°C° 0 mm 2 m/s 717 mmHg 18%
    03:00 +18°C° 0 mm 2 m/s 717 mmHg 19%
    04:00 +18°C° 0 mm 2 m/s 717 mmHg 19%
    05:00 +19°C° 0 mm 2 m/s 718 mmHg 18%
    06:00 +19°C° 0 mm 2 m/s 718 mmHg 17%
    07:00 +20°C° 0 mm 2 m/s 719 mmHg 16%
    08:00 +24°C° 0 mm 2 m/s 719 mmHg 14%
    09:00 +26°C° 0 mm 2 m/s 719 mmHg 12%
    10:00 +28°C° 0 mm 2 m/s 719 mmHg 10%
    11:00 +30°C° 0 mm 1 m/s 718 mmHg 9%
    12:00 +31°C° 0 mm 1 m/s 718 mmHg 8%
    13:00 +33°C° 0 mm 1 m/s 717 mmHg 7%
    14:00 +33°C° 0 mm 1 m/s 717 mmHg 7%
    15:00 +35°C° 0 mm 2 m/s 716 mmHg 7%
    16:00 +35°C° 0 mm 2 m/s 716 mmHg 7%
    17:00 +32°C° 0 mm 2 m/s 716 mmHg 8%
    18:00 +29°C° 0 mm 2 m/s 716 mmHg 9%
    19:00 +27°C° 0 mm 1 m/s 716 mmHg 11%
    20:00 +26°C° 0 mm 1 m/s 716 mmHg 11%
    21:00 +26°C° 0 mm 1 m/s 716 mmHg 11%
    22:00 +26°C° 0 mm 1 m/s 717 mmHg 12%
    23:00 +25°C° 0 mm 2 m/s 716 mmHg 12%
    Arată mai mult